Worthington, MN

3:43 PM CST on December 14, 2019 (GMT -0600)
Worthington Municipal

Weather History for KOTG - October, 2019

Change the Weather History Date:

Wednesday, October 16, 2019

  Actual Average Record
Temperature  
Mean Temperature 40 °F -  
Max Temperature 45 °F 56 °F 75 °F (1988)
Min Temperature 35 °F 37 °F 25 °F (1991)
Degree Days  
Heating Degree Days 25    
Moisture  
Dew Point 33 °F    
Average Humidity 80    
Maximum Humidity 89    
Minimum Humidity 65    
Precipitation  
Precipitation 0.00 in - - ()
Sea Level Pressure  
Sea Level Pressure 30.17 in    
Wind  
Wind Speed 11 mph (NW)    
Max Wind Speed 17 mph    
Max Gust Speed 21 mph    
Visibility 10 miles    
Events      
Averages and records for this station are not official NWS values.
T = Trace of Precipitation, MM = Missing Value Source: NWS Daily Summary

Daily Weather History Graph

Daily Weather History Graph

Search for Another Location

Airport or City:

Astronomy

Oct. 16, 2019 Rise Set
Actual Time 7:37 AM CDT 6:37 PM CDT
Civil Twilight 7:08 AM CDT 7:06 PM CDT
Nautical Twilight 6:35 AM CDT 7:39 PM CDT
Astronomical Twilight 6:02 AM CDT 8:12 PM CDT
Moon 8:27 PM CDT (10/16) 10:12 AM CDT (10/16)
Length of Visible Light 11h 57m
Length of Day
11h 00m
Waning Gibbous, 92% of the Moon is Illuminated
Oct 16
Waning Gibbous
Oct 21
Last Quarter
Oct 27
New
Nov 4
First Quarter
Nov 12
Full

Hourly Weather History & Observations

Time (CDT) Temp. Windchill Dew Point Humidity Pressure Visibility Wind Dir Wind Speed Gust Speed Precip Events Conditions
12:56 AM 39.9 °F 31.1 °F 34.0 °F 79% 30.19 in 10.0 mi NNW 17.3 mph - N/A   Overcast
1:56 AM 39.0 °F 29.9 °F 32.0 °F 76% 30.20 in 10.0 mi NNW 17.3 mph - N/A   Overcast
2:56 AM 37.9 °F 28.9 °F 33.1 °F 83% 30.22 in 10.0 mi NW 16.1 mph - N/A   Overcast
3:18 AM 37.4 °F 28.2 °F 33.8 °F 87% 30.17 in 10.0 mi NNW 16.1 mph 20.7 mph N/A   Overcast
3:56 AM 37.0 °F 28.9 °F 33.1 °F 86% 30.22 in 10.0 mi NNW 12.7 mph - N/A   Overcast
4:56 AM 37.0 °F 29.3 °F 33.1 °F 86% 30.22 in 10.0 mi NW 11.5 mph - N/A   Overcast
5:56 AM 37.0 °F 28.9 °F 32.0 °F 82% 30.21 in 10.0 mi North 12.7 mph - N/A   Overcast
6:56 AM 36.0 °F 28.5 °F 32.0 °F 86% 30.22 in 10.0 mi North 10.4 mph - N/A   Overcast
7:56 AM 36.0 °F 29.0 °F 33.1 °F 89% 30.21 in 10.0 mi NNW 9.2 mph - N/A   Overcast
8:56 AM 36.0 °F 29.0 °F 33.1 °F 89% 30.23 in 10.0 mi NNW 9.2 mph - N/A   Overcast
9:56 AM 37.0 °F 31.6 °F 33.1 °F 86% 30.24 in 10.0 mi NW 6.9 mph - N/A   Overcast
10:56 AM 37.0 °F 32.4 °F 33.1 °F 86% 30.25 in 10.0 mi NNW 5.8 mph - N/A   Overcast
11:56 AM 37.9 °F 32.7 °F 32.0 °F 79% 30.24 in 10.0 mi WNW 6.9 mph - N/A   Overcast
12:56 PM 39.0 °F 35.7 °F 32.0 °F 76% 30.20 in 10.0 mi West 4.6 mph - N/A   Overcast
1:03 PM 39.2 °F 37.0 °F 32.0 °F 75% 30.16 in 10.0 mi WSW 3.5 mph - N/A   Overcast
1:56 PM 41.0 °F 35.2 °F 34.0 °F 76% 30.19 in 10.0 mi WNW 9.2 mph - N/A   Overcast
2:56 PM 41.0 °F 37.1 °F 33.1 °F 73% 30.17 in 10.0 mi NW 5.8 mph - N/A   Overcast
3:44 PM 42.8 °F - 33.8 °F 70% 30.09 in 10.0 mi Calm Calm - N/A   Scattered Clouds
3:56 PM 44.1 °F 40.1 °F 34.0 °F 68% 30.14 in 10.0 mi NW 6.9 mph - N/A   Scattered Clouds
4:56 PM 45.0 °F 43.5 °F 34.0 °F 65% 30.12 in 10.0 mi Variable 3.5 mph - N/A   Clear
5:56 PM 44.1 °F 41.5 °F 34.0 °F 68% 30.11 in 10.0 mi SSW 4.6 mph - N/A   Clear
6:56 PM 43.0 °F 41.3 °F 34.0 °F 71% 30.09 in 10.0 mi South 3.5 mph - N/A   Clear
7:56 PM 42.1 °F 39.2 °F 34.0 °F 73% 30.10 in 10.0 mi SSE 4.6 mph - N/A   Clear
8:56 PM 37.9 °F 34.4 °F 34.0 °F 86% 30.10 in 10.0 mi SSE 4.6 mph - N/A   Clear
9:56 PM 37.0 °F - 33.1 °F 86% 30.10 in 10.0 mi Calm Calm - N/A   Clear
10:56 PM 35.1 °F 31.0 °F 32.0 °F 89% 30.09 in 10.0 mi SE 4.6 mph - N/A   Clear
11:56 PM 35.1 °F 29.3 °F 32.0 °F 89% 30.08 in 10.0 mi SE 6.9 mph - N/A   Clear